Terug naar catalogus

FENGYUN 1C DEB

LostPO
NORAD 38110·DEBRIS·🇨🇳 China

Gelanceerd May 10, 1999 vanaf Taiyuan Satellite Launch Center

Loading…

Volgende Passages (komende 24 uur)

TLE

VerouderdSource: Space-Track

Epoch: Aug 26, 2024, 19:01 UTC

1 38110U 99025EPF 24239.79254808  .00002904  00000-0  18479-2 0  9997
2 38110  98.1142 230.6930 0194782 197.7627 288.5840 13.95483087723042

Volg FENGYUN 1C DEB in realtime met AllMySat

Download on the App Store